Chatham, MA

11:54 PM EDT on September 27, 2016 (GMT -0400)
Chatham Municipal

Weather History for KCQX - August, 2014

Change the Weather History Date:

Sunday, August 24, 2014

  Actual Average Record
Temperature  
Mean Temperature 64 °F -  
Max Temperature 72 °F 73 °F 81 °F (1999)
Min Temperature 57 °F 60 °F 51 °F (2004)
Growing Degree Days 14 (Base 50)    
Moisture  
Dew Point 57 °F    
Average Humidity 76    
Maximum Humidity 93    
Minimum Humidity 57    
Precipitation  
Precipitation 0.00 in - - ()
Sea Level Pressure  
Sea Level Pressure 30.13 in    
Wind  
Wind Speed 4 mph (NE)    
Max Wind Speed 12 mph    
Max Gust Speed -    
Visibility 10 miles    
Events      
Averages and records for this station are not official NWS values.
T = Trace of Precipitation, MM = Missing Value Source: NWS Daily Summary

Daily Weather History Graph

Daily Weather History Graph

Search for Another Location

Airport or City:

Trip Planner

Search our weather history database for the weather conditions in past years. The results will help you decide how hot, cold, wet, or windy it might be!

Date:

Astronomy

Aug. 24, 2014 Rise Set
Actual Time 5:57 AM EDT 7:26 PM EDT
Civil Twilight 5:28 AM EDT 7:55 PM EDT
Nautical Twilight 4:53 AM EDT 8:30 PM EDT
Astronomical Twilight 4:16 AM EDT 9:07 PM EDT
Moon 5:05 AM EDT (8/24) 6:42 PM EDT (8/24)
Length of Visible Light 14h 26m
Length of Day
13h 28m
Waning Crescent, 1% of the Moon is Illuminated
Aug 24
Waning Crescent
Aug 25
New
Sep 2
First Quarter
Sep 8
Full
Sep 15
Last Quarter

Hourly Weather History & Observations

Time (EDT) Temp. Dew Point Humidity Pressure Visibility Wind Dir Wind Speed Gust Speed Precip Events Conditions
12:41 AM 59.0 °F 55.9 °F 90% 30.11 in 10.0 mi NNW 3.5 mph - N/A   Mostly Cloudy
12:52 AM 59.0 °F 55.9 °F 90% 30.11 in 10.0 mi NNW 3.5 mph - N/A   Mostly Cloudy
1:52 AM 60.1 °F 57.0 °F 90% 30.10 in 10.0 mi Calm Calm - N/A   Mostly Cloudy
2:52 AM 59.0 °F 55.9 °F 90% 30.11 in 10.0 mi Calm Calm - N/A   Partly Cloudy
3:52 AM 59.0 °F 55.9 °F 90% 30.11 in 10.0 mi Calm Calm - N/A   Clear
5:52 AM 57.9 °F 55.9 °F 93% 30.12 in 10.0 mi Calm Calm - N/A   Clear
6:52 AM 62.1 °F 57.9 °F 86% 30.12 in 10.0 mi Calm Calm - N/A   Clear
8:52 AM 66.9 °F 57.9 °F 73% 30.13 in 10.0 mi NE 11.5 mph - N/A   Clear
9:52 AM 69.1 °F 57.9 °F 68% 30.14 in 10.0 mi NNE 8.1 mph - N/A   Clear
10:52 AM 69.1 °F 57.0 °F 65% 30.14 in 10.0 mi NE 11.5 mph - N/A   Clear
12:52 PM 72.0 °F 57.0 °F 59% 30.14 in 10.0 mi NE 10.4 mph - N/A   Clear
1:52 PM 72.0 °F 55.9 °F 57% 30.15 in 10.0 mi NE 8.1 mph - N/A   Clear
2:52 PM 71.1 °F 55.9 °F 59% 30.14 in 10.0 mi NE 10.4 mph - N/A   Clear
3:52 PM 71.1 °F 57.0 °F 61% 30.14 in 10.0 mi NNE 8.1 mph - N/A   Clear
4:52 PM 70.0 °F 57.9 °F 65% 30.14 in 10.0 mi Variable 6.9 mph - N/A   Clear
5:52 PM 69.1 °F 59.0 °F 70% 30.13 in 10.0 mi East 6.9 mph - N/A   Clear
6:52 PM 68.0 °F 57.9 °F 70% 30.13 in 10.0 mi ENE 4.6 mph - N/A   Clear
7:52 PM 64.9 °F 59.0 °F 81% 30.14 in 10.0 mi Calm Calm - N/A   Clear
8:52 PM 62.1 °F 57.9 °F 86% 30.14 in 10.0 mi Calm Calm - N/A   Clear